{"data":{"norad_id":68645,"epoch":"2026-05-24T18:47:58.229376Z","epoch_age_seconds":93481,"freshness":"FRESH","line1":"1 68645U 26075K   26144.78331284 -.01987422  00000+0 -29371+1 0  9998","line2":"2 68645  88.9870 323.4163 0007495  71.6653 288.5316 13.57980142  6634","mean_motion":13.57980142,"eccentricity":0.0007495,"inclination_deg":88.987,"raan_deg":323.4163,"arg_perigee_deg":71.6653,"mean_anomaly_deg":288.5316,"bstar":-2.9371,"rev_number":663,"period_min":106.03984222326,"perigee_km":1037.4796250173,"apogee_km":1048.6039720363,"semimajor_km":7421.1787985268,"source":"CELESTRAK","updated_at":"2026-05-25T13:38:07.992347Z"}}